Location: Songkhla
(7.2000°N, 100.6000°E)
Time: 20:37:26
(UTC+07:00)

Cosmos 1339 Rocket - Pass Details

Date: 16 April 2026
Orbit: 940 x 1006 km, 82.9° (Epoch: 20 May)

Event Time Altitude Azimuth Distance (km) Brightness Sun altitude
Rises 19:53:03 0° 4° (N) 3,632 7.6 -21.9°
Reaches altitude 10° 19:55:36 10° 9° (N) 2,678 6.9 -22.5°
Maximum altitude 20:01:34 56° 86° (E) 1,114 4.4 -24.0°
Enters shadow 20:02:14 53° 111° (ESE) 1,146 4.4 -24.1°
